TimeEDT,TemperatureF,Dew PointF,Humidity,Sea Level PressureIn,VisibilityMPH,Wind Direction,Wind SpeedMPH,Gust SpeedMPH,PrecipitationIn,Events,Conditions,WindDirDegrees,DateUTC
12:53 AM,54.0,48.0,80,30.01,10.0,North,4.6,-,N/A,,Partly Cloudy,10,2013-09-26 04:53:00
1:53 AM,52.0,48.0,86,30.01,10.0,North,4.6,-,N/A,,Partly Cloudy,350,2013-09-26 05:53:00
2:53 AM,51.1,46.9,86,30.02,10.0,North,3.5,-,N/A,,Scattered Clouds,360,2013-09-26 06:53:00
3:53 AM,51.1,46.9,86,30.02,10.0,Calm,Calm,-,N/A,,Scattered Clouds,0,2013-09-26 07:53:00
4:53 AM,48.9,48.0,97,30.03,10.0,NNW,3.5,-,N/A,,Partly Cloudy,330,2013-09-26 08:53:00
5:53 AM,50.0,48.9,96,30.04,6.0,North,4.6,-,N/A,,Partly Cloudy,360,2013-09-26 09:53:00
6:50 AM,50.0,48.2,94,30.06,5.0,North,4.6,-,N/A,,Scattered Clouds,10,2013-09-26 10:50:00
6:53 AM,50.0,48.9,96,30.06,5.0,North,3.5,-,N/A,,Scattered Clouds,10,2013-09-26 10:53:00
7:53 AM,51.1,50.0,96,30.09,6.0,North,4.6,-,N/A,,Scattered Clouds,360,2013-09-26 11:53:00
8:53 AM,55.9,52.0,87,30.09,8.0,North,3.5,-,N/A,,Partly Cloudy,10,2013-09-26 12:53:00
9:53 AM,61.0,52.0,72,30.11,10.0,North,4.6,-,N/A,,Partly Cloudy,10,2013-09-26 13:53:00
10:53 AM,66.0,51.1,59,30.11,10.0,NE,5.8,-,N/A,,Clear,50,2013-09-26 14:53:00
11:53 AM,70.0,48.9,47,30.11,10.0,NE,5.8,-,N/A,,Clear,40,2013-09-26 15:53:00
12:53 PM,72.0,48.0,43,30.11,10.0,NE,6.9,-,N/A,,Clear,40,2013-09-26 16:53:00
1:53 PM,73.9,48.0,40,30.09,10.0,NNE,5.8,-,N/A,,Clear,30,2013-09-26 17:53:00
2:53 PM,73.0,46.0,38,30.09,10.0,Variable,4.6,-,N/A,,Clear,0,2013-09-26 18:53:00
3:53 PM,73.0,46.9,39,30.09,10.0,ENE,4.6,-,N/A,,Clear,70,2013-09-26 19:53:00
4:53 PM,73.4,42.8,33,30.09,10.0,East,8.1,-,N/A,,Partly Cloudy,80,2013-09-26 20:53:00
5:53 PM,71.6,44.6,38,30.10,10.0,East,5.8,-,N/A,,Partly Cloudy,100,2013-09-26 21:53:00
6:53 PM,71.6,46.4,41,30.11,10.0,East,4.6,-,N/A,,Partly Cloudy,100,2013-09-26 22:53:00
7:53 PM,64.0,52.0,65,30.12,10.0,South,3.5,-,N/A,,Clear,170,2013-09-26 23:53:00
8:53 PM,62.1,48.9,62,30.13,10.0,Calm,Calm,-,N/A,,Clear,0,2013-09-27 00:53:00
9:53 PM,60.1,50.0,69,30.14,10.0,Calm,Calm,-,N/A,,Clear,0,2013-09-27 01:53:00
10:53 PM,59.0,50.0,72,30.15,10.0,Calm,Calm,-,N/A,,Clear,0,2013-09-27 02:53:00
11:53 PM,57.0,50.0,77,30.15,10.0,Calm,Calm,-,N/A,,Clear,0,2013-09-27 03:53:00